{"data":{"norad_id":67655,"intl_designator":"2026-022H","name":"STARLINK-36720","alt_names":[],"object_type":"PAYLOAD","status":"ACTIVE","operator":null,"country":"US","launch_date":"2026-02-02","launch_site_code":"AFWTR","launch_vehicle":null,"mission":null,"orbit_class":"UNKNOWN","rcs_meters":null,"size_class":null,"mass_kg":null,"dimensions":null,"purposes":["comms"],"wikipedia_slug":null,"has_3d_model":false,"image_url":null,"decayed_at":null,"tle_current":{"epoch":"2026-09-19T19:35:09.448512Z","epoch_age_seconds":128279,"freshness":"FRESH","line1":"1 67655U 26022H   26262.81608158  .00017129  00000+0  53134-3 0  9994","line2":"2 67655  97.2842 294.4092 0000858 235.0726 125.0436 15.33467206 35320","mean_motion":15.33467206,"eccentricity":8.58e-5,"inclination_deg":97.2842,"raan_deg":294.4092,"arg_perigee_deg":235.0726,"mean_anomaly_deg":125.0436,"bstar":0.00053134,"rev_number":3532,"period_min":93.904844809573,"perigee_km":464.88992375239,"apogee_km":466.06428793295,"semimajor_km":6843.6141058427,"source":"CELESTRAK","updated_at":"2026-09-20T09:00:43.619756Z"}}}